Starlink 5980

operational
NORAD ID: 56326 Int'l Des: 2023-058 Owner: SPXS Country: US Constellation: starlink
LEOCIRCULARRETROGRADESSO

About Starlink 5980

Description loading...

Live Position

Loading 3D Globe...

Upcoming Passes

Altitude History

Altitude vs Time

uPlot chart will show altitude changes over time

Two-Line Element Set

1 56326U 23058K 26035.94359548 .00000724 00000-0 60887-4 0 9999
2 56326 97.6058 38.0932 0003101 63.9264 296.2279 15.01265863152865
Epoch: Feb 4, 2026 • Age: 15 hours

Current Status

Altitude 571.1 km
Velocity 7.57 km/s
Sub-Earth Point -16.46°S, 127.99°W
Launch Date Apr 27, 2023
Age 2.7 years
Type internet

Technical Details

Classification Payload
Mass 300.00 kg
Dry Mass 260.00 kg
Total Mass 300.00 kg
Length 0.20 m
Diameter 2.80 m
Span 9.00 m
Shape Box + pan
Manufacturer SPXS
Bus Type Starlink
Phase Status In Orbit
Owner/State SPXS/US

Large Constellations

Loading constellations...